GFSGBSN_con_sbcape_000.txt.gz
CAPE
3 2 5 6 4 5 3 3 2 2 1 1 0 2 1 0 0 0 0 0 0 0 0 1 1 2 0 0 0 0 193 381 0 0 0 0 0 0 0 0 0 0 2 15 52 7 46
2 2 5 9 7 5 3 3 2 1 1 2 3 5 4 4 2 2 1 1 1 0 0 1 1 0 0 0 0 0 0 0 0 0 0 0 0 0 0 0 0 19 31 48 29 61 52
6 4 4 5 2 3 3 3 3 1 1 1 3 5 4 3 1 0 2 2 0 0 0 2 1 0 0 0 0 0 0 0 0 0 0 0 0 0 0 0 0 23 2 0 26 61 198
11 8 4 9 9 9 8 3 6 4 2 2 2 5 5 3 3 2 2 2 0 0 0 1 2 0 0 0 0 0 0 0 0 0 0 0 0 0 0 0 0 0 0 0 0 56 161
17 21 22 17 11 10 8 7 6 5 1 3 2 2 3 3 3 2 1 1 0 0 0 2 0 0 0 0 0 0 0 0 0 0 0 0 0 0 0 0 0 0 0 0 0 0 78
28 20 20 10 14 14 12 8 4 4 2 2 3 0 0 1 2 1 1 0 0 0 0 0 0 0 0 0 0 0 0 0 0 0 0 0 0 0 0 0 0 0 0 0 0 0 17
13 8 2 4 14 19 15 11 7 5 4 2 0 0 0 0 0 1 0 0 0 0 0 0 0 0 0 0 0 0 0 0 0 0 0 0 0 0 0 0 0 0 0 0 0 0 97
12 6 2 10 24 18 18 13 7 3 4 4 0 0 1 1 0 0 0 0 0 0 0 0 0 0 0 0 0 0 0 0 0 0 0 0 0 0 0 0 0 0 0 0 0 0 0
15 22 26 22 20 20 16 15 10 3 3 2 2 2 3 2 0 0 0 0 0 0 0 0 0 0 0 0 0 0 0 0 0 0 0 0 0 0 0 0 0 0 0 0 0 3 3
28 33 35 25 21 17 16 16 15 6 3 2 3 3 4 2 0 0 0 0 0 0 0 0 0 0 0 0 0 0 0 0 0 0 0 0 0 0 0 0 0 0 0 0 16 23 6
41 38 34 32 23 19 15 19 14 7 3 5 4 5 4 0 0 0 0 0 0 0 0 0 0 0 0 0 0 0 0 0 0 0 0 0 0 0 0 0 0 0 0 0 43 28 6
36 33 36 33 29 17 15 16 10 4 5 5 4 1 8 0 0 0 0 0 0 0 0 0 0 0 0 0 0 0 0 0 0 0 0 0 0 0 0 0 0 0 0 0 0 0 7
27 19 23 34 26 24 25 17 13 4 3 4 0 0 2 0 0 0 0 0 0 0 0 0 0 0 0 0 0 0 0 0 0 0 0 0 0 0 0 0 0 0 0 0 0 0 0
19 36 27 33 23 29 30 28 23 9 4 3 0 0 0 0 0 0 0 0 0 0 0 0 0 0 0 0 0 0 0 0 0 0 0 0 0 0 0 0 0 0 0 0 0 0 0
15 24 26 24 25 32 30 24 14 5 2 0 0 0 0 0 0 0 0 0 0 0 0 0 0 0 0 0 0 0 0 0 0 0 0 0 0 0 0 0 0 0 0 0 0 0 0
16 26 17 22 26 26 21 17 10 7 3 0 0 0 0 0 0 0 0 0 0 0 0 0 0 0 0 0 0 0 0 0 0 0 0 0 0 0 0 0 0 0 0 0 0 0 0
19 23 14 17 27 25 23 20 12 2 1 0 0 0 0 0 0 0 0 0 0 0 0 0 0 0 0 0 0 0 0 0 0 0 0 0 0 0 0 0 0 0 0 0 0 0 0
27 33 30 22 17 16 23 18 6 0 0 0 0 0 0 0 0 0 0 0 0 0 0 0 0 0 0 0 0 0 0 0 0 0 0 0 0 0 0 0 0 0 0 0 0 0 0
36 34 24 16 19 5 17 17 7 0 3 3 0 0 0 0 0 0 0 0 0 0 0 0 0 0 0 0 0 0 0 0 0 0 0 0 0 0 0 0 0 0 0 0 0 0 0
27 31 20 20 8 9 16 10 3 0 0 7 0 0 0 0 0 0 0 0 0 0 0 0 0 0 0 0 0 0 0 0 1 0 0 0 0 0 0 0 0 0 0 0 0 0 0
26 21 24 35 24 10 21 13 4 0 0 3 0 0 0 0 0 0 0 0 0 0 0 0 0 0 0 0 0 20 79 96 37 0 1 0 0 0 0 0 0 0 0 0 0 0 0
17 23 22 22 30 29 15 23 15 2 0 0 0 0 0 0 0 0 0 0 0 0 0 0 36 1 0 1 55 56 9 21 57 32 0 0 0 0 0 0 0 0 0 0 0 0 0
26 23 28 25 19 28 23 24 18 10 1 0 0 0 0 0 0 0 0 0 0 0 0 22 0 3 0 0 0 0 0 0 19 9 4 0 0 0 0 0 0 0 0 0 0 0 0
45 42 45 43 45 42 34 18 28 20 19 28 0 3 0 0 0 0 0 0 0 0 0 0 0 0 1 0 0 9 0 1 26 6 0 0 0 0 0 0 0 0 0 12 14 10 2
51 52 54 53 50 45 48 36 22 31 24 3 1 2 0 0 0 0 0 0 0 0 0 0 0 0 0 0 0 0 27 26 63 0 41 17 4 10 0 0 0 21 26 18 24 29 15
62 65 60 65 62 56 52 42 34 42 30 2 0 0 0 0 0 0 0 0 0 0 0 0 0 0 0 0 0 0 4 43 99 34 0 40 3 49 5 3 3 6 77 60 36 70 44
65 67 58 76 83 65 63 48 39 34 36 16 0 0 0 1 0 0 0 0 0 0 0 0 0 0 0 0 0 0 0 0 21 30 30 72 84 9 0 0 0 20 118 67 39 70 47
73 75 76 76 63 63 56 55 47 42 29 15 1 0 0 10 0 0 0 0 0 0 0 0 0 0 0 5 1 0 0 0 6 3 17 194 179 4 10 5 21 19 134 295 71 26 0
79 71 59 65 70 68 66 58 54 50 27 17 2 0 0 0 0 0 0 0 0 0 0 0 0 0 0 0 0 0 149 15 16 227 88 159 37 190 209 36 4 0 0 0 0 0 0

GFSGBSN_con_sbcape_006.txt.gz
CAPE
4 4 4 9 9 6 6 7 7 6 5 4 2 2 2 1 0 0 0 0 0 0 0 1 2 2 0 0 0 0 0 0 0 0 0 0 0 0 0 0 0 0 0 0 0 0 0
11 12 7 4 9 8 8 7 5 5 4 4 3 3 6 4 1 0 1 3 3 1 1 1 2 0 0 0 0 0 0 0 0 0 0 0 0 0 0 0 0 0 0 1 0 0 0
9 12 13 5 8 13 10 8 8 5 3 4 4 3 4 4 0 0 2 3 1 1 1 1 1 0 0 0 0 0 0 0 0 0 0 0 0 0 0 0 0 0 0 0 0 0 71
13 12 12 11 14 11 10 11 12 12 7 7 7 5 1 1 0 1 4 4 2 0 1 0 1 0 0 0 0 0 0 0 0 0 0 0 0 0 0 0 0 0 0 7 0 0 25
14 12 12 15 18 20 21 14 10 12 16 14 12 8 7 6 6 6 2 4 0 1 1 1 0 0 0 0 0 0 0 0 0 0 0 0 0 0 0 0 0 0 0 0 2 0 29
20 16 15 15 12 25 27 22 15 9 9 12 12 12 8 6 6 3 3 0 0 0 0 0 0 0 0 0 0 0 0 0 0 0 0 0 0 0 0 0 0 0 0 0 12 16 28
19 14 11 13 14 25 30 24 16 11 10 11 10 6 7 6 5 1 0 0 0 0 0 0 0 0 0 0 0 0 0 0 0 0 0 0 0 0 0 0 0 0 0 1 0 2 15
14 14 13 12 13 15 14 16 15 14 12 15 13 9 9 7 2 0 0 0 0 0 0 0 0 0 0 0 0 0 0 0 0 0 0 0 0 0 0 0 0 0 0 0 0 0 13
9 10 17 15 12 20 19 17 22 20 18 13 11 8 9 3 0 0 0 0 0 0 0 0 0 0 0 0 0 0 0 0 0 0 0 0 0 0 0 0 0 0 0 0 0 0 6
8 14 21 20 22 23 25 23 21 20 11 8 9 7 6 6 0 0 0 0 0 0 0 0 0 0 0 0 0 0 0 0 0 0 0 0 0 0 0 0 0 0 0 0 0 5 1
23 26 26 24 27 23 24 20 19 19 13 12 10 3 3 4 0 0 0 0 0 0 0 0 0 0 0 0 0 0 0 0 0 0 0 0 0 0 0 0 0 0 0 0 0 0 3
13 11 8 17 23 25 26 18 18 15 9 8 7 1 6 0 0 0 0 0 0 0 0 0 0 0 0 0 0 0 0 0 0 0 0 0 0 0 0 0 0 0 0 0 0 0 0
13 13 11 11 21 18 19 12 14 20 8 1 0 0 3 1 0 0 0 0 0 0 0 0 0 0 0 0 0 0 0 0 0 0 0 0 0 0 0 0 0 0 0 0 0 0 0
24 33 36 39 47 29 19 14 15 14 6 0 0 0 0 0 0 0 0 0 0 0 0 0 0 0 0 0 0 0 0 0 0 0 0 0 0 0 0 0 0 0 0 0 0 0 0
35 31 36 41 38 37 27 20 18 13 4 0 0 0 0 0 0 0 0 0 0 0 0 0 0 0 0 0 0 0 0 0 0 0 0 0 0 0 0 0 0 0 0 0 0 0 0
27 27 41 45 48 45 32 29 25 13 2 0 0 0 0 0 0 0 0 0 0 0 0 0 0 0 0 0 0 0 0 0 0 0 0 0 0 0 0 0 0 0 0 0 0 0 0
34 26 23 32 47 50 36 32 30 15 0 0 0 0 0 0 0 0 0 0 0 0 0 0 0 0 0 0 0 0 0 0 0 0 0 0 0 0 0 0 0 0 0 0 0 0 0
37 37 37 39 48 53 53 38 29 9 1 0 0 0 0 0 0 0 0 0 0 0 0 0 0 0 0 0 0 0 0 0 0 0 0 0 0 0 0 0 0 0 0 0 0 0 0
42 45 51 34 47 29 49 47 37 10 9 9 0 0 0 0 0 0 0 0 0 0 0 0 0 0 0 0 0 0 0 0 0 0 0 0 0 0 0 0 0 0 0 0 0 0 0
18 33 32 28 29 24 37 42 35 19 6 9 0 0 0 0 0 0 0 0 0 0 0 0 0 0 0 0 0 0 0 0 0 6 150 0 0 0 0 0 0 0 0 0 0 0 0
41 51 43 22 40 42 43 50 38 18 5 5 0 0 0 0 0 0 0 0 0 0 0 0 0 0 0 0 0 0 0 0 4 6 0 0 0 0 0 0 0 0 0 0 0 0 0
46 46 39 34 44 47 45 76 58 24 4 2 7 0 0 0 0 0 0 0 0 0 0 0 0 0 0 0 0 0 0 0 18 31 0 0 0 0 0 0 0 0 0 0 0 0 0
52 51 47 47 57 52 49 67 67 36 0 0 0 0 8 0 0 0 0 0 0 0 0 0 0 0 0 0 0 0 0 0 2 1 0 0 0 0 0 0 0 0 0 0 0 0 0
54 59 63 61 69 64 68 70 71 71 15 11 0 10 28 1 0 0 0 0 0 0 0 0 0 0 0 0 0 0 0 0 0 0 0 1 0 0 0 0 0 0 0 0 0 0 0
77 87 86 89 73 76 88 66 75 92 49 7 2 2 28 20 5 0 0 0 0 0 0 0 0 0 0 0 0 0 0 2 0 0 0 0 0 0 0 0 0 0 0 0 27 13 0
77 74 83 81 78 74 77 74 62 92 81 2 0 0 4 10 0 0 0 0 0 0 0 0 0 0 0 0 0 0 5 0 0 2 0 0 0 0 0 0 0 0 0 0 2 17 0
109 108 84 84 88 80 74 67 64 63 88 18 1 15 21 38 0 0 0 0 0 0 0 0 0 0 0 0 0 0 0 0 32 21 8 0 0 0 0 1 2 0 0 0 31 0 0
140 123 104 81 84 68 74 78 87 68 58 28 0 1 18 40 0 0 0 0 0 0 0 0 0 0 0 0 0 0 0 0 28 0 7 0 69 17 0 13 94 0 6 11 0 0 0
123 116 101 91 71 48 76 73 76 67 65 48 0 0 32 17 0 0 0 0 0 0 0 0 0 0 0 0 0 0 4 0 2 126 7 84 98 28 0 0 0 0 0 0 0 0 0

GFSGBSN_con_sbcape_009.txt.gz
CAPE
10 6 5 2 3 3 7 8 8 9 7 6 4 3 2 3 1 0 0 0 0 0 1 1 1 1 0 0 0 0 0 23 0 0 0 0 0 0 0 0 0 0 0 0 0 74 159
15 6 8 10 7 5 7 6 11 9 8 8 6 7 6 5 4 1 2 4 2 1 1 2 2 0 0 0 0 0 0 0 0 0 0 0 0 0 0 0 0 0 0 0 0 66 109
14 15 14 4 4 12 10 8 4 5 5 7 7 6 7 6 2 0 2 4 3 1 1 1 2 0 0 0 0 0 0 0 0 0 0 0 0 0 0 0 0 0 8 18 8 1 99
12 13 12 14 9 9 9 12 7 5 6 6 7 9 6 5 4 2 4 6 2 1 1 1 2 0 0 0 0 0 0 0 0 0 0 0 0 0 0 0 0 0 10 27 9 31 149
12 12 11 7 18 17 18 11 6 10 11 9 7 7 9 9 10 6 3 3 1 0 1 1 0 0 0 0 0 0 0 0 0 0 0 0 0 0 0 0 0 0 9 23 22 24 151
12 13 14 4 9 18 20 17 14 16 17 16 12 9 9 7 7 4 2 0 0 0 0 0 0 0 0 0 0 0 0 0 0 0 0 0 0 0 0 0 0 0 13 18 57 24 139
16 14 14 17 17 21 21 19 11 12 14 12 10 10 10 7 4 0 0 0 0 0 0 0 0 0 0 0 0 0 0 0 0 0 0 0 0 0 0 0 0 0 44 77 52 33 49
13 14 18 16 10 13 13 8 8 8 8 8 10 7 8 4 1 0 0 0 0 0 0 0 0 0 0 0 0 0 0 0 0 0 0 0 0 0 0 0 0 0 23 68 17 34 57
15 18 18 18 19 20 20 16 14 13 15 16 10 7 5 5 0 0 0 0 0 0 0 0 0 0 0 0 0 0 0 0 0 0 0 0 0 0 0 0 0 0 7 23 23 8 38
15 26 21 20 20 24 25 26 19 15 15 14 9 5 7 3 0 0 0 0 0 0 0 0 0 0 0 0 0 0 0 0 0 0 0 0 0 0 0 0 0 0 0 19 45 30 11
23 26 25 23 25 30 26 19 9 9 10 9 7 2 2 5 0 0 0 0 0 0 0 0 0 0 0 0 0 0 0 0 0 0 0 0 0 0 0 0 0 0 0 0 8 42 1
25 24 21 23 25 36 24 16 10 14 12 6 2 0 6 0 0 0 0 0 0 0 0 0 0 0 0 0 0 0 0 0 0 0 0 0 0 0 0 0 0 0 0 0 0 0 0
32 44 32 25 33 39 27 13 9 6 8 3 0 0 0 0 0 0 0 0 0 0 0 0 0 0 0 0 0 0 0 0 0 0 0 0 0 0 0 0 0 0 0 0 0 0 0
34 49 42 47 42 39 39 26 17 16 8 0 0 0 0 0 0 0 0 0 0 0 0 0 0 0 0 0 0 0 0 0 0 0 0 0 0 0 0 0 0 0 0 0 0 0 0
42 55 48 44 34 41 41 34 25 18 3 0 0 0 0 0 0 0 0 0 0 0 0 0 0 0 0 0 0 0 0 0 0 0 0 0 0 0 0 0 0 0 0 0 0 0 0
35 32 45 43 52 54 49 41 41 25 8 0 0 0 0 0 0 0 0 0 0 0 0 0 0 0 0 0 0 0 0 0 0 0 0 0 0 0 0 0 0 0 0 0 0 0 0
66 60 46 46 64 53 52 53 43 26 4 0 0 0 0 0 0 0 0 0 0 0 0 0 0 0 0 0 0 0 0 0 0 0 0 0 0 0 0 0 0 0 0 0 0 0 0
60 54 48 51 63 48 35 56 42 20 0 0 0 0 0 0 0 0 0 0 0 0 0 0 0 0 0 0 0 0 0 0 0 0 0 0 0 0 0 0 0 0 0 0 0 0 0
75 64 52 72 53 34 48 59 50 26 14 17 0 0 0 0 0 0 0 0 0 0 0 0 0 0 0 0 0 0 0 0 0 0 0 0 0 0 0 0 0 0 0 0 0 0 0
40 48 51 56 47 11 30 57 52 30 16 2 1 0 0 0 0 0 0 0 0 0 0 0 0 0 0 0 0 0 0 0 0 0 29 0 0 0 0 0 0 0 0 0 0 0 0
53 56 62 53 28 24 40 61 49 24 11 0 1 0 2 0 0 0 0 0 0 0 0 0 0 0 0 0 0 0 0 0 0 0 68 33 0 0 0 0 0 0 0 0 0 0 0
46 54 54 59 64 71 68 81 75 37 0 0 9 18 1 5 0 0 0 0 0 0 0 0 0 0 0 0 0 0 0 0 0 33 133 0 33 0 0 0 0 0 0 0 0 0 0
43 52 63 76 75 75 85 89 120 59 0 6 0 4 12 0 0 0 0 0 0 0 0 0 0 0 0 0 0 0 0 0 7 62 269 319 5 66 0 0 0 0 0 0 0 0 0
49 55 62 64 77 72 76 86 106 85 43 78 2 12 25 0 0 0 0 0 0 0 0 0 0 0 0 0 0 0 0 0 0 24 25 472 274 0 16 0 0 0 0 0 0 0 0
72 79 79 89 95 81 82 87 112 85 74 69 7 50 33 4 1 0 0 0 0 0 0 0 0 0 0 0 0 0 24 38 5 27 59 299 23 0 0 2 2 0 0 0 0 0 0
98 73 90 125 107 83 91 92 98 113 124 102 48 5 41 14 0 0 5 6 0 0 0 0 0 0 0 0 40 57 17 0 147 173 40 145 164 120 15 1 0 19 0 0 0 0 0
74 55 105 136 125 82 93 85 96 83 131 74 130 10 59 45 5 0 0 1 0 0 0 0 0 0 0 83 63 106 52 33 64 196 202 422 206 183 326 133 5 1 0 16 50 32 0
57 100 129 120 106 91 79 59 70 64 76 57 68 16 48 30 1 0 0 1 6 5 2 0 0 0 7 217 191 115 32 52 243 371 302 223 253 216 299 238 113 0 23 211 136 20 45
99 104 109 111 112 119 103 43 38 42 44 81 60 8 39 40 4 0 0 0 2 0 0 0 0 0 0 2 0 17 277 90 294 256 192 184 151 217 137 14 0 0 0 1 134 121 117

GFSGBSN_con_sbcape_015.txt.gz
CAPE
12 12 11 12 6 13 8 8 7 5 6 4 5 3 1 1 0 0 0 2 4 2 1 0 0 0 0 0 0 0 3 55 0 0 0 0 0 0 0 0 0 0 8 3 0 5 30
10 10 7 10 8 9 6 6 4 5 4 4 3 2 4 2 0 0 1 5 5 1 0 1 1 0 0 0 0 0 0 0 0 0 0 0 0 0 0 0 0 1 0 1 1 4 12
8 10 9 10 5 6 4 6 6 4 2 3 3 4 4 2 0 0 0 3 0 0 1 1 1 0 0 0 0 0 0 0 0 0 0 0 0 0 0 0 0 0 0 3 0 1 9
9 7 8 11 11 9 11 3 4 3 3 3 2 3 4 1 0 0 1 1 0 0 1 1 1 0 0 0 0 0 0 0 0 0 0 0 0 0 0 0 0 0 0 67 7 0 36
8 10 11 11 12 12 12 8 3 4 6 5 3 6 4 1 0 0 0 0 0 0 0 0 0 0 0 0 0 0 0 0 0 0 0 0 0 0 0 0 0 0 4 17 4 17 159
11 15 9 5 6 13 15 14 9 9 5 5 6 5 5 2 0 0 0 0 0 0 0 0 0 0 0 0 0 0 0 0 0 0 0 0 0 0 0 0 0 8 22 78 135 21 188
10 10 9 6 6 10 14 15 18 11 3 5 7 7 5 1 0 0 0 0 0 0 0 0 0 0 0 0 0 0 0 0 0 0 0 0 0 0 0 0 0 19 66 12 70 31 94
14 13 5 5 10 14 12 20 17 12 6 5 5 5 0 0 0 0 0 0 0 0 0 0 0 0 0 0 0 0 0 0 0 0 0 0 0 0 0 0 0 0 36 65 38 40 63
14 8 12 15 15 27 28 28 22 12 9 7 4 6 1 0 0 0 0 0 0 0 0 0 0 0 0 0 0 0 0 0 0 0 0 0 0 0 0 0 0 0 11 47 74 146 94
18 20 22 33 36 23 26 22 20 11 9 7 7 5 1 0 0 0 0 0 0 0 0 0 0 0 0 0 0 0 0 0 0 0 0 0 0 0 0 0 0 0 0 14 63 57 147
29 39 38 40 33 33 30 21 18 13 2 2 3 1 0 0 0 0 0 0 0 0 0 0 0 0 0 0 0 0 0 0 0 0 0 0 0 0 0 0 0 0 0 14 37 142 202
36 38 44 38 40 42 24 22 24 19 2 1 1 0 0 0 0 0 0 0 0 0 0 0 0 0 0 0 0 0 0 0 0 0 0 0 0 0 0 0 0 0 0 26 37 73 111
57 58 53 48 39 29 18 14 0 0 0 0 0 0 0 0 0 0 0 0 0 0 0 0 0 0 0 0 0 0 0 0 0 0 0 0 0 0 0 0 0 0 0 22 62 72 49
72 73 70 59 46 27 9 1 0 0 0 0 0 0 0 0 0 0 0 0 0 0 0 0 0 0 0 0 0 0 0 0 0 0 0 0 0 0 0 0 0 0 0 1 30 52 51
71 65 67 63 52 44 47 29 30 17 13 0 0 0 0 0 0 0 0 0 0 0 0 0 0 0 0 0 0 0 0 0 0 0 0 0 0 0 0 0 0 0 0 0 23 71 90
57 38 43 47 44 48 40 35 29 21 5 0 0 0 0 0 0 0 0 0 0 0 0 0 0 0 0 0 0 0 0 0 0 0 0 0 0 0 0 0 0 0 0 0 15 132 137
29 35 38 41 47 47 35 37 27 13 0 0 0 0 0 0 0 0 0 0 0 0 0 0 0 0 0 0 0 0 0 0 0 0 0 0 0 0 0 0 0 0 0 0 2 45 80
44 44 45 50 57 55 41 54 42 21 0 0 0 0 0 0 0 0 0 0 0 0 0 0 0 0 0 0 0 0 0 0 0 0 0 0 0 0 0 0 0 0 0 0 24 28 29
42 34 28 48 62 48 51 58 44 16 10 12 1 0 0 0 0 0 0 0 0 0 0 0 0 0 0 0 0 0 0 0 0 0 0 0 0 0 0 0 0 0 0 0 0 11 164
39 33 38 53 48 41 53 66 49 31 38 17 33 13 12 15 6 0 0 0 0 0 0 0 0 0 0 0 0 0 0 0 0 0 0 0 2 0 0 0 0 0 0 0 0 0 11
54 56 54 49 33 43 54 76 73 60 47 36 57 33 42 57 72 11 7 58 14 11 12 6 3 0 0 0 0 0 0 0 0 2 0 0 0 0 0 3 7 0 0 0 0 0 3
59 68 71 71 69 69 62 122 72 52 12 11 89 88 76 52 95 11 5 22 0 0 2 0 3 1 2 2 0 0 0 0 0 0 0 0 0 0 2 2 1 6 10 0 0 0 0
58 64 73 91 96 94 94 101 122 74 3 39 137 122 113 25 99 123 15 3 4 10 15 0 0 0 29 12 0 2 27 3 0 23 10 0 14 8 5 24 77 77 1 2 7 8 0
60 73 92 101 101 138 124 116 125 129 42 151 9 62 100 84 96 130 70 2 9 2 26 2 0 1 0 0 0 0 2 22 32 8 0 3 49 45 61 174 215 0 78 31 20 32 35
104 119 122 174 139 111 134 163 156 137 129 315 124 31 40 95 43 102 110 26 12 10 13 0 0 0 0 1 0 20 33 12 1 6 24 38 34 56 115 120 115 160 277 330 367 213 40
165 162 173 189 184 133 139 176 144 131 149 254 386 59 34 32 53 60 89 26 28 10 25 18 3 0 0 6 0 9 42 9 0 0 0 34 121 269 262 139 241 302 495 224 384 161 67
208 186 187 186 212 219 204 163 141 108 120 227 126 86 56 14 14 78 70 32 27 26 45 0 39 0 2 0 22 6 17 16 37 33 0 2 72 53 188 239 180 661 275 282 384 311 960
169 140 129 96 175 196 149 141 166 132 127 172 286 352 151 38 5 57 72 56 25 19 3 11 45 57 100 123 87 52 31 33 63 124 147 11 85 80 243 177 193 432 469 468 845 893 969
115 121 115 55 160 100 150 117 159 76 53 57 40 171 59 41 13 47 72 60 28 37 42 9 12 0 43 137 180 105 154 232 144 65 142 160 77 129 377 475 666 452 555 635 732 1067 1055

GFSGBSN_con_sbcape_021.txt.gz
CAPE
6 6 7 9 11 9 6 4 5 7 4 3 1 2 2 0 0 0 0 0 0 0 0 0 0 1 0 0 0 0 0 119 0 0 0 0 0 0 0 0 0 0 6 37 35 44 48
8 7 7 4 7 4 1 1 1 2 3 2 3 5 6 6 4 3 2 1 0 0 0 0 0 1 0 0 0 0 0 0 0 0 0 0 0 0 0 0 0 0 0 1 31 60 53
16 10 7 9 9 10 5 3 3 1 1 2 3 4 4 6 3 1 2 1 0 0 0 0 1 0 0 0 0 0 0 0 0 0 0 0 0 0 0 0 0 0 0 0 0 2 73
24 21 13 18 17 16 13 8 5 6 6 5 4 3 2 3 3 3 1 0 0 0 0 0 0 0 0 0 0 0 0 0 0 0 0 0 0 0 0 0 0 0 0 0 0 0 8
17 21 22 24 18 13 15 19 17 18 13 8 6 3 1 0 0 0 0 0 0 0 0 0 0 0 0 0 0 0 0 0 0 0 0 0 0 0 0 0 0 0 0 0 0 0 0
25 29 22 19 14 16 18 17 15 7 3 2 2 4 3 0 0 0 0 0 0 0 0 0 0 0 0 0 0 0 0 0 0 0 0 0 0 0 0 0 0 0 0 0 0 0 12
24 24 20 16 24 15 7 6 12 10 9 9 7 4 3 1 0 0 0 0 0 0 0 0 0 0 0 0 0 0 0 0 0 0 0 0 0 0 0 0 0 0 0 0 0 18 47
36 37 36 32 29 24 13 1 2 4 5 7 6 4 2 0 0 0 0 0 0 0 0 0 0 0 0 0 0 0 0 0 0 0 0 0 0 0 0 0 0 0 0 0 0 20 44
57 51 39 36 36 30 22 9 1 2 2 3 4 2 0 0 0 0 0 0 0 0 0 0 0 0 0 0 0 0 0 0 0 0 0 0 0 0 0 0 0 0 0 0 0 0 50
58 47 43 41 35 33 32 21 7 5 5 5 3 0 0 0 0 0 0 0 0 0 0 0 0 0 0 0 0 0 0 0 0 0 0 0 0 0 0 0 0 0 0 0 0 0 0
41 41 45 42 35 31 26 19 8 4 3 3 3 0 0 0 0 0 0 0 0 0 0 0 0 0 0 0 0 0 0 0 0 0 0 0 0 0 0 0 0 0 0 0 0 0 7
48 45 38 39 43 37 30 18 9 3 1 3 1 0 0 0 0 0 0 0 0 0 0 0 0 0 0 0 0 0 0 0 0 0 0 0 0 0 0 0 0 0 0 0 0 0 1
39 38 38 42 35 24 5 6 13 0 0 0 0 0 0 0 0 0 0 0 0 0 0 0 0 0 0 0 0 0 0 0 0 0 0 0 0 0 0 0 0 0 0 0 0 0 0
38 36 39 42 33 27 30 35 26 15 3 0 0 0 0 0 0 0 0 0 0 0 0 0 0 0 0 0 0 0 0 0 0 0 0 0 0 0 0 0 0 0 0 0 0 0 0
40 38 43 42 40 41 45 46 30 18 5 0 0 0 0 0 0 0 0 0 0 0 0 0 0 0 0 0 0 0 0 0 0 0 0 0 0 0 0 0 0 0 0 0 0 0 0
40 48 44 42 41 43 47 46 47 37 0 0 0 0 0 0 0 0 0 0 0 0 0 0 0 0 0 0 0 0 0 0 0 0 0 0 0 0 0 0 0 0 0 0 0 0 0
47 53 50 48 47 49 53 53 47 30 0 0 0 0 0 0 0 0 0 0 0 0 0 0 0 0 0 0 0 0 0 0 0 0 0 0 0 0 0 0 0 0 0 0 0 0 0
51 54 57 62 65 67 72 67 57 32 0 0 0 0 0 0 0 0 0 0 0 0 0 0 0 0 0 0 0 0 0 0 0 0 0 0 0 0 0 0 0 0 0 0 0 0 0
42 40 47 51 62 75 86 83 66 30 37 4 1 0 0 0 0 0 0 0 0 0 0 0 0 0 0 0 0 0 0 0 0 0 0 0 0 0 0 0 0 0 0 0 0 0 0
47 43 40 51 73 94 102 114 84 58 64 16 32 5 0 0 0 3 1 0 0 0 1 0 0 0 0 0 0 0 0 0 0 0 12 38 0 0 0 0 0 0 0 0 0 0 0
24 20 34 62 57 106 153 180 147 105 62 39 89 20 8 4 0 0 0 1 0 0 0 0 0 0 0 0 0 0 0 0 0 0 0 0 0 0 0 0 0 0 0 0 0 0 0
46 44 44 81 82 113 154 202 237 183 62 55 56 50 1 0 0 0 0 0 0 0 3 0 0 0 0 9 3 0 0 0 0 0 0 0 0 0 0 0 0 0 0 0 0 0 0
21 24 44 66 82 96 159 222 225 200 11 70 50 144 60 6 1 1 0 1 4 9 2 0 0 0 0 0 5 0 0 0 0 0 0 0 0 0 0 0 0 0 0 0 0 0 0
46 30 44 50 58 64 95 176 235 241 66 64 115 103 46 4 5 1 0 0 5 20 8 0 16 1 0 0 0 0 0 0 0 0 0 0 0 0 0 3 11 0 0 0 0 1 0
52 32 30 33 57 68 69 100 139 153 199 31 38 60 37 21 19 0 1 15 4 3 16 23 17 1 0 0 1 0 0 0 0 0 0 0 0 0 0 0 0 0 0 0 0 0 6
62 78 48 47 60 64 70 83 73 57 239 141 157 124 21 5 0 0 3 0 0 18 15 31 1 32 50 31 8 2 0 0 0 0 0 0 0 0 0 0 0 0 0 4 266 127 697
26 43 41 48 66 65 66 57 117 170 236 136 157 147 26 7 0 0 6 16 10 32 37 7 14 0 3 41 13 21 0 0 0 0 0 4 59 25 1 0 0 0 0 217 240 173 718
69 74 66 38 44 55 69 70 48 54 112 218 44 243 105 38 5 1 0 5 10 3 6 40 11 19 1 7 3 5 0 1 11 0 19 79 0 0 20 19 8 421 207 289 351 944 973
84 89 87 92 94 38 27 31 33 22 35 67 25 222 104 13 11 0 0 0 0 0 7 24 36 15 46 69 126 66 9 3 55 58 18 28 1 41 78 664 567 947 941 847 1460 1461 1652

GFSGBSN_con_sbcape_024.txt.gz
CAPE
11 10 10 10 13 10 6 4 4 4 3 2 1 1 1 0 0 0 0 0 1 0 0 0 0 0 0 0 0 0 0 251 0 0 0 0 0 0 0 0 0 0 0 12 48 62 15
21 20 10 10 11 11 7 7 7 9 6 3 2 4 4 4 4 3 3 2 2 0 0 0 0 1 0 0 0 0 0 0 0 0 0 0 0 0 0 0 0 0 0 0 5 20 21
9 1 1 5 16 14 7 7 5 4 5 4 7 6 5 4 4 3 3 1 1 0 0 0 0 0 0 0 0 0 0 0 0 0 0 0 0 0 0 0 0 0 0 0 0 0 37
17 9 5 12 16 10 8 6 4 8 8 9 10 9 6 4 3 2 1 1 0 0 0 0 0 0 0 0 0 0 0 0 0 0 0 0 0 0 0 0 0 0 0 0 0 9 24
29 29 30 28 23 18 11 7 6 5 5 4 4 6 4 2 2 0 0 0 0 0 0 0 0 0 0 0 0 0 0 0 0 0 0 0 0 0 0 0 0 0 0 0 0 1 31
43 43 40 37 30 26 20 16 9 6 7 8 6 4 4 2 0 0 0 0 0 0 0 0 0 0 0 0 0 0 0 0 0 0 0 0 0 0 0 0 0 0 0 0 0 0 20
61 62 37 26 29 27 24 21 18 11 9 8 8 6 4 1 0 0 0 0 0 0 0 0 0 0 0 0 0 0 0 0 0 0 0 0 0 0 0 0 0 0 0 0 0 0 3
52 48 32 36 33 31 26 22 21 18 13 9 5 4 4 1 0 0 0 0 0 0 0 0 0 0 0 0 0 0 0 0 0 0 0 0 0 0 0 0 0 0 0 0 0 0 2
30 36 39 41 41 36 31 24 19 9 8 7 3 3 2 0 0 0 0 0 0 0 0 0 0 0 0 0 0 0 0 0 0 0 0 0 0 0 0 0 0 0 0 0 0 0 15
47 43 36 34 36 40 32 17 4 6 8 4 2 2 2 2 0 0 0 0 0 0 0 0 0 0 0 0 0 0 0 0 0 0 0 0 0 0 0 0 0 0 0 0 0 0 0
42 36 31 32 38 34 22 12 7 3 2 2 1 1 1 0 0 0 0 0 0 0 0 0 0 0 0 0 0 0 0 0 0 0 0 0 0 0 0 0 0 0 0 0 0 0 0
30 31 21 25 30 25 20 17 13 4 2 2 0 0 0 0 0 0 0 0 0 0 0 0 0 0 0 0 0 0 0 0 0 0 0 0 0 0 0 0 0 0 0 0 0 0 0
40 32 32 36 32 24 17 15 12 2 4 4 0 0 0 0 0 0 0 0 0 0 0 0 0 0 0 0 0 0 0 0 0 0 0 0 0 0 0 0 0 0 0 0 0 0 0
21 37 40 41 38 34 32 33 30 7 3 0 0 0 0 0 0 0 0 0 0 0 0 0 0 0 0 0 0 0 0 0 0 0 0 0 0 0 0 0 0 0 0 0 0 0 0
31 45 46 42 39 40 40 43 31 10 0 0 0 0 0 0 0 0 0 0 0 0 0 0 0 0 0 0 0 0 0 0 0 0 0 0 0 0 0 0 0 0 0 0 0 0 0
29 32 37 47 49 52 55 54 45 33 0 0 0 0 0 0 0 0 0 0 0 0 0 0 0 0 0 0 0 0 0 0 0 0 0 0 0 0 0 0 0 0 0 0 0 0 0
22 20 30 39 38 39 49 60 53 49 0 0 0 0 0 0 0 0 0 0 0 0 0 0 0 0 0 0 0 0 0 0 0 0 0 0 0 0 0 0 0 0 0 0 0 0 0
18 29 33 32 33 43 63 68 55 40 0 0 0 0 0 0 0 0 0 0 0 0 0 0 0 0 0 0 0 0 0 0 0 0 0 0 0 0 0 0 0 0 0 0 0 0 0
22 34 40 44 50 63 69 53 41 34 32 0 0 0 0 0 0 0 0 0 0 0 0 0 0 0 0 0 0 0 0 0 0 0 0 0 0 0 0 0 0 0 0 0 0 0 0
25 26 22 36 52 59 61 47 24 37 33 0 0 0 0 0 0 0 0 0 0 0 0 0 0 0 0 0 0 0 0 0 0 0 0 0 0 0 0 0 0 0 0 0 0 0 0
20 22 21 25 29 46 62 61 60 54 38 0 0 0 0 1 0 0 4 1 0 0 0 0 0 0 0 0 0 0 0 0 0 0 0 0 0 0 0 0 0 0 0 0 0 0 0
29 31 25 19 28 49 88 82 84 66 24 9 7 14 0 6 0 0 0 5 3 2 0 0 0 0 0 0 0 0 0 0 0 0 0 0 0 0 0 0 0 0 0 0 0 0 0
13 15 20 28 36 62 86 97 90 67 3 12 28 24 23 0 0 0 0 0 0 0 0 16 11 4 0 0 0 0 0 0 0 0 0 0 0 0 0 0 0 0 0 0 0 0 0
41 26 22 23 24 41 63 117 160 156 21 0 13 16 7 14 2 0 0 0 0 4 3 0 0 3 0 0 0 0 0 0 0 0 0 0 0 0 0 0 0 0 0 0 0 0 0
38 17 22 29 38 59 55 79 125 165 109 3 13 12 12 5 3 1 0 1 0 0 0 0 0 0 0 0 0 0 0 0 0 0 0 0 0 0 0 0 0 0 0 0 0 0 0
2 10 15 8 6 28 48 71 78 258 245 18 0 11 43 12 0 3 5 0 0 0 0 0 0 0 0 9 34 0 0 0 1 6 2 0 0 0 0 0 0 0 0 0 0 0 140
12 30 43 26 41 62 71 61 69 78 117 1 0 0 4 2 1 0 0 0 0 0 0 0 0 0 0 29 231 0 0 0 6 5 53 62 13 2 0 3 0 0 0 19 2 0 234
37 25 42 27 31 31 31 42 52 51 47 4 0 0 24 33 3 4 2 5 1 0 19 0 14 2 0 20 64 0 0 0 26 38 97 77 85 18 0 0 0 0 5 5 33 445 136
12 26 43 56 30 28 30 33 39 48 51 27 0 0 1 33 0 0 0 0 0 0 0 0 16 5 13 4 3 14 28 64 51 70 109 84 87 3 0 6 0 67 289 800 1039 1203 981

GFSGBSN_con_sbcape_030.txt.gz
CAPE
23 24 19 16 23 19 12 8 15 14 8 6 3 3 3 2 2 3 2 2 2 1 1 2 3 2 0 0 0 0 89 0 341 0 0 0 148 129 0 0 12 91 21 29 25 12 10
39 39 31 24 20 17 12 13 11 13 11 8 9 10 8 7 6 4 6 8 8 2 1 2 4 2 0 0 0 0 0 0 23 0 0 0 0 0 0 0 0 0 4 1 0 0 0
62 37 29 27 21 19 18 14 10 8 7 9 11 13 11 9 7 7 4 6 3 3 2 3 5 0 0 0 0 0 0 0 0 0 0 0 0 0 0 0 0 0 0 0 0 0 0
25 15 16 17 25 29 23 17 12 9 12 12 9 8 8 8 7 4 2 3 2 1 0 2 4 0 0 0 0 0 0 0 0 0 0 0 0 0 0 0 0 0 0 0 0 0 0
19 20 20 21 22 25 28 25 16 16 14 12 12 9 7 6 3 1 0 0 0 1 1 3 0 0 0 0 0 0 0 0 0 0 0 0 0 0 0 0 0 0 0 0 0 0 0
23 30 23 9 14 24 22 17 16 14 11 9 8 6 6 7 3 0 0 0 0 1 0 0 0 0 0 0 0 0 0 0 0 0 0 0 0 0 0 0 0 0 0 0 0 0 0
12 15 14 7 10 21 21 16 14 13 12 8 6 4 2 4 0 0 0 0 0 0 0 0 0 0 0 0 0 0 0 0 0 0 0 0 0 0 0 0 0 0 0 0 0 0 0
14 20 12 8 9 12 11 10 11 10 8 5 3 2 2 1 0 0 0 0 0 0 0 0 0 0 0 0 0 0 0 0 0 0 0 0 0 0 0 0 0 0 0 0 0 0 0
13 13 10 12 16 17 17 17 15 12 7 4 3 2 2 2 0 0 0 0 0 0 0 0 0 0 0 0 0 0 0 0 0 0 0 0 0 0 0 0 0 0 0 0 0 0 0
9 18 26 28 30 30 30 24 18 14 8 4 2 2 1 3 0 0 0 0 0 0 0 0 0 0 0 0 0 0 0 0 0 0 0 0 0 0 0 0 0 0 0 0 0 0 0
21 26 26 25 26 28 26 21 20 19 12 4 1 0 0 0 0 0 0 0 0 0 0 0 0 0 0 0 0 0 0 0 0 0 0 0 0 0 0 0 0 0 0 0 0 0 0
22 19 18 19 18 26 24 18 17 18 12 5 3 0 1 0 0 0 0 0 0 0 0 0 0 0 0 0 0 0 0 0 0 0 0 0 0 0 0 0 0 0 0 0 0 0 0
12 10 8 13 17 27 22 17 16 17 10 1 0 0 0 0 0 0 0 0 0 0 0 0 0 0 0 0 0 0 0 0 0 0 0 0 0 0 0 0 0 0 0 0 0 0 0
10 14 21 27 25 29 30 29 20 16 5 0 0 0 0 0 0 0 0 0 0 0 0 0 0 0 0 0 0 0 0 0 0 0 0 0 0 0 0 0 0 0 0 0 0 0 0
11 15 22 25 29 29 27 25 14 6 0 0 0 0 0 0 0 0 0 0 0 0 0 0 0 0 0 0 0 0 0 0 0 0 0 0 0 0 0 0 0 0 0 0 0 0 0
16 20 27 34 36 30 23 25 16 13 0 0 0 0 0 0 0 0 0 0 0 0 0 0 0 0 0 0 0 0 0 0 0 0 0 0 0 0 0 0 0 0 0 0 0 0 0
26 25 28 37 40 33 35 48 39 27 0 0 0 0 0 0 0 0 0 0 0 0 0 0 0 0 0 0 0 0 0 0 0 0 0 0 0 0 0 0 0 0 0 0 0 0 0
19 31 40 40 37 35 42 51 42 10 0 0 0 0 0 0 0 0 0 0 0 0 0 0 0 0 0 0 0 0 0 0 0 0 0 0 0 0 0 0 0 0 0 0 0 0 0
28 36 37 43 46 49 47 44 43 4 0 0 0 0 0 0 0 0 0 0 0 0 0 0 0 0 0 0 0 0 0 0 0 0 0 0 0 0 0 0 0 0 0 0 0 0 0
19 27 37 51 54 58 65 48 38 10 0 0 0 0 0 0 0 0 0 0 1 8 0 0 0 0 0 0 0 0 0 0 0 0 0 0 0 0 0 0 0 0 0 0 0 0 0
17 19 19 24 37 47 62 56 45 16 0 0 0 0 0 0 0 4 0 0 12 0 0 0 2 0 0 0 0 0 0 0 0 0 0 0 0 0 0 0 0 0 0 0 0 0 0
9 11 11 16 12 12 53 70 59 25 0 0 0 18 13 2 2 8 0 0 0 0 2 0 30 2 0 0 0 0 0 0 0 0 0 0 0 0 0 0 0 0 0 0 0 0 0
5 4 6 11 16 27 49 73 67 25 0 2 12 11 7 5 1 7 1 0 0 0 0 22 9 3 0 0 0 0 0 0 0 0 0 0 0 0 0 0 0 0 0 0 0 0 0
4 1 2 3 5 13 35 56 71 52 0 0 0 22 24 5 18 12 13 0 0 0 5 0 0 0 0 0 0 0 0 0 0 0 0 0 0 0 0 0 0 0 0 0 0 0 0
3 0 0 0 1 15 15 16 55 60 38 0 0 34 26 3 5 4 2 0 0 0 0 0 0 0 0 0 0 0 0 0 0 0 0 0 0 0 0 0 0 0 0 0 0 0 0
1 2 0 0 1 4 20 28 26 66 55 0 0 0 26 32 7 1 3 1 0 0 0 0 0 0 0 0 0 0 0 0 0 0 0 0 0 0 0 0 0 0 0 0 0 0 0
0 0 0 0 0 0 14 35 35 51 55 0 0 0 14 29 0 0 5 0 0 7 14 0 0 0 0 2 5 0 0 0 0 0 0 0 0 0 0 0 0 0 0 0 0 0 0
0 0 0 0 0 1 8 19 43 56 72 16 1 0 18 20 8 7 8 11 5 2 6 0 0 0 0 1 1 1 4 0 0 0 0 0 0 1 0 0 0 0 0 2 0 0 0
0 0 0 0 1 4 5 13 49 52 58 46 1 0 0 25 9 0 0 0 2 2 1 1 14 0 3 2 2 4 3 3 0 0 0 0 3 4 0 0 0 0 0 0 0 0 0

GFSGBSN_con_sbcape_036.txt.gz
CAPE
19 19 13 9 11 14 8 7 5 4 4 3 2 3 5 4 1 1 5 7 7 2 2 3 5 1 0 0 0 0 0 0 0 0 0 0 0 0 0 36 213 393 230 40 88 95 38
17 10 10 11 9 7 5 4 4 3 2 3 3 7 11 8 4 4 7 7 4 1 3 4 4 1 0 0 0 0 0 0 0 0 0 0 0 0 0 2 85 46 117 13 0 0 0
14 15 7 7 6 4 3 3 3 3 2 2 5 8 9 7 4 6 7 4 0 0 2 5 4 0 0 0 0 0 0 0 0 0 0 0 0 0 0 0 0 0 0 0 0 0 0
17 11 7 7 6 4 3 3 3 3 4 6 5 6 6 6 4 3 3 1 0 0 2 1 5 0 0 0 0 0 0 0 0 0 0 0 0 0 0 0 0 0 0 0 0 0 0
9 10 11 10 8 6 5 4 2 8 9 7 7 8 4 4 3 1 0 0 0 2 1 6 0 0 0 0 0 0 0 0 0 0 0 0 0 0 0 0 0 0 0 0 0 0 0
10 8 7 5 3 6 5 4 5 8 9 7 7 5 2 3 1 0 0 0 0 1 0 0 0 0 0 0 0 0 0 0 0 0 0 0 0 0 0 0 0 0 0 0 0 0 0
7 7 5 5 4 10 10 9 10 11 12 9 6 2 1 0 0 0 0 0 0 0 0 0 0 0 0 0 0 0 0 0 0 0 0 0 0 0 0 0 0 0 0 0 0 0 0
11 8 7 9 8 8 8 8 8 8 11 9 5 1 0 0 0 0 0 0 0 0 0 0 0 0 0 0 0 0 0 0 0 0 0 0 0 0 0 0 0 0 0 0 0 0 0
11 10 9 8 11 14 14 16 12 8 7 7 3 0 0 0 0 0 0 0 0 0 0 0 0 0 0 0 0 0 0 0 0 0 0 0 0 0 0 0 0 0 0 0 0 0 0
6 21 19 15 18 14 16 13 7 5 6 6 2 1 0 0 0 0 0 0 0 0 0 0 0 0 0 0 0 0 0 0 0 0 0 0 0 0 0 0 0 0 0 0 0 0 0
8 18 19 22 20 19 20 16 11 5 3 1 1 1 0 0 0 0 0 0 0 0 0 0 0 0 0 0 0 0 0 0 0 0 0 0 0 0 0 0 0 0 0 0 0 0 0
11 10 15 18 19 22 15 12 10 5 2 1 0 0 0 0 0 0 0 0 0 0 0 0 0 0 0 0 0 0 0 0 0 0 0 0 0 0 0 0 0 0 0 0 0 0 0
7 11 12 13 14 10 5 6 6 2 1 0 0 0 0 0 0 0 0 0 0 0 0 0 0 0 0 0 0 0 0 0 0 0 0 0 0 0 0 0 0 0 0 0 0 0 0
3 11 18 16 11 8 12 11 5 2 0 0 0 0 0 0 0 0 0 0 0 0 0 0 0 0 0 0 0 0 0 0 0 0 0 0 0 0 0 0 0 0 0 0 0 0 0
5 12 15 21 18 15 14 6 0 0 0 0 0 0 0 0 0 0 0 0 1 3 10 0 0 0 0 0 0 0 0 0 0 0 0 0 0 0 0 0 0 0 0 0 0 0 0
3 6 19 20 10 13 13 2 0 0 0 0 0 0 0 0 0 0 0 0 1 3 7 0 0 0 0 0 0 0 0 0 0 0 0 0 0 0 0 0 0 0 0 0 0 0 0
4 8 15 13 17 20 24 13 0 0 0 0 0 0 0 0 0 0 0 0 0 2 16 0 5 12 2 1 0 0 0 0 0 0 0 0 0 0 0 0 0 0 0 0 0 0 0
2 7 9 17 21 30 33 17 0 0 0 0 0 0 0 0 4 0 7 0 0 35 55 64 19 6 22 13 1 0 1 0 0 0 0 0 0 0 0 0 0 0 0 0 0 0 0
4 5 12 17 25 31 26 22 1 0 0 0 0 0 0 0 1 5 1 2 3 46 53 49 64 53 9 23 9 7 12 0 0 0 0 0 0 0 0 0 0 0 0 0 0 0 0
0 4 6 12 17 17 11 18 17 0 0 0 1 3 2 4 8 24 20 30 56 35 38 29 30 57 60 15 9 8 10 0 0 0 0 0 0 0 0 0 0 0 0 0 0 0 0
0 1 3 2 3 7 11 11 20 0 0 5 22 13 17 20 47 43 22 40 56 32 36 46 46 25 39 20 26 9 10 0 0 0 0 0 0 0 0 0 0 0 0 0 0 0 0
0 0 1 2 1 0 5 11 10 15 0 21 18 22 26 26 17 24 29 37 47 27 23 57 77 13 6 44 35 6 13 10 5 0 0 0 0 0 0 0 0 0 0 0 0 0 0
0 0 0 0 0 0 2 4 25 26 0 30 27 42 61 15 21 43 36 25 24 28 49 64 45 46 10 10 12 14 6 2 0 0 0 0 0 0 0 0 0 0 0 0 0 0 0
0 0 0 0 0 1 3 6 12 40 8 90 53 66 59 18 24 18 30 36 37 29 31 78 58 40 38 2 0 3 3 0 0 0 0 0 0 0 0 0 0 0 0 0 0 0 0
0 0 0 0 0 1 2 6 13 21 56 45 71 61 45 41 18 18 19 44 57 24 22 32 27 53 41 4 75 67 16 6 0 0 0 0 0 0 0 0 0 0 0 0 0 0 0
1 0 0 0 0 2 2 4 12 22 47 57 47 60 60 39 13 15 26 26 41 29 32 19 23 42 69 96 81 67 48 23 5 3 0 0 0 0 0 0 0 0 0 0 0 0 0
0 0 0 0 0 0 0 5 13 23 44 55 11 27 32 28 6 10 24 42 31 40 44 22 23 22 23 93 101 80 46 26 11 7 29 0 1 0 0 0 0 0 0 7 0 46 4
1 1 1 3 2 3 6 12 9 15 44 61 11 1 14 13 4 12 8 20 21 29 39 22 29 52 108 111 85 78 59 71 18 10 9 27 12 1 0 0 0 0 0 0 0 0 0
3 3 2 5 7 9 10 9 15 20 36 67 46 4 2 12 5 10 16 13 12 10 47 30 14 10 41 136 94 41 87 57 48 34 24 17 10 8 0 0 0 0 0 0 0 0 0